Hourly Data Report for January 16, 2022

SHEARWATER RCS
NOVA SCOTIA
Current Station Operator: ECCC - MSC

44°37'47.000" N
63°30'48.000" W
24.00 m
8205092
71264
AAW

Download Data

Hourly Data (January 2022)
Hourly Data Report for January 16, 2022
TIME
LST
Temp Definition
°C
Dew Point Definition
°C
Rel Hum Definition
%
Precip. Amount Definition
mm

Wind Dir Definition
10's deg

Wind Spd Definition
km/h
Visibility Definition
km
Stn Press Definition
kPa
Hmdx Definition


Wind Chill Definition


Weather Definition


00:00 -15.5 -19.4 72 0.0 28 19   101.01   -25 LegendNANA
01:00 -15.2 -19.0 72 0.0 28 19   101.01   -24 LegendNANA
02:00 -14.6 -18.3 74 0.0 27 18   101.23   -23 LegendNANA
03:00 -14.2 -17.9 74 0.0 27 16   101.33   -22 LegendNANA
04:00 -14.4 -17.5 77 0.0 27 16   101.39   -22 LegendNANA
05:00 -14.5 -17.5 78 0.0 26 17   101.50   -23 LegendNANA
06:00 -13.9 -16.8 78 0.0 27 13   101.60   -21 LegendNANA
07:00 -13.5 -16.3 79 0.0 27 17   101.73   -22 LegendNANA
08:00 -13.2 -15.9 80 0.0 27 15   101.80   -21 LegendNANA
09:00 -12.3 -16.0 74 0.0 27 17   101.91   -20 LegendNANA
10:00 -11.1 -16.5 65 0.0 28 21   101.97   -19 LegendNANA
11:00 -9.8 -15.8 61 0.0 28 19   102.06   -17 LegendNANA
12:00 -8.7 -15.1 60 0.0 29 19   102.12   -16 LegendNANA
13:00 -7.4 -13.9 60 0.0 28 16   102.08   -14 LegendNANA
14:00 -7.0 -14.5 55 0.0 28 16   102.12   -13 LegendNANA
15:00 -6.0 -14.0 53 0.0 26 13   102.22   -11 LegendNANA
16:00 -6.2 -15.1 49 0.0 27 19   102.27   -13 LegendNANA
17:00 -7.2 -13.8 59 0.0 28 14   102.37   -13 LegendNANA
18:00 -7.8 -13.7 62 0.0 28 10   102.42   -13 LegendNANA
19:00 -8.7 -13.5 68 0.0 32 4   102.43   -11 LegendNANA
20:00 -9.5 -13.2 74 0.0 31 5   102.46   -12 LegendNANA
21:00 -11.0 -13.8 80 0.0 2 5   102.35   -14 LegendNANA
22:00 -11.6 -13.7 84 0.0 20 4   102.40   -14 LegendNANA
23:00 -8.5 -11.4 79 0.0 23 8   102.54   -13 LegendNANA

Notes on Data Quality.

Legend

  • E = Estimated
  • M = Missing
  • NA = Not Available*
  • [empty] = Indicates an unobserved value
Date modified: